• In Russia
  • List of Countries
  • For 7 days
  • Water Temperature
  • Satellite Maps
  • Weather Map
  • Weather Widgets
  • user-avatar
    Login

    Hourly Weather Moyamba

    Today, 11 December, Tuesday

    Time Temperature Precipitation Wind Pressure Humidity
    00:00 +26°C° 0 mm 1 mps 754 mmHg 85%
    01:00 +25°C° 0 mm 1 mps 754 mmHg 87%
    02:00 +25°C° 0 mm 1 mps 753 mmHg 88%
    03:00 +25°C° 0 mm 1 mps 753 mmHg 89%
    04:00 +24°C° 0 mm 1 mps 753 mmHg 91%
    05:00 +24°C° 0 mm 1 mps 753 mmHg 92%
    06:00 +25°C° 0 mm 1 mps 754 mmHg 86%
    07:00 +27°C° 0 mm 1 mps 754 mmHg 80%
    08:00 +28°C° 0 mm 1 mps 755 mmHg 73%
    09:00 +30°C° 0 mm 1 mps 754 mmHg 63%
    10:00 +32°C° 0 mm 1 mps 754 mmHg 52%
    11:00 +35°C° 0 mm 1 mps 754 mmHg 42%
    12:00 +35°C° 0 mm 1 mps 753 mmHg 38%
    13:00 +36°C° 0 mm 1 mps 753 mmHg 35%
    14:00 +37°C° 0 mm 1 mps 752 mmHg 31%
    15:00 +36°C° 0 mm 2 mps 752 mmHg 38%
    16:00 +34°C° 0 mm 2 mps 752 mmHg 45%
    17:00 +31°C° 0 mm 2 mps 752 mmHg 52%
    18:00 +30°C° 0 mm 2 mps 752 mmHg 59%
    19:00 +29°C° 0 mm 2 mps 753 mmHg 67%
    20:00 +27°C° 0 mm 1 mps 753 mmHg 74%
    21:00 +27°C° 0 mm 1 mps 754 mmHg 78%
    22:00 +26°C° 0 mm 1 mps 754 mmHg 81%
    23:00 +26°C° 0 mm 1 mps 754 mmHg 84%

    Tomorrow, 12 December, Wednesday

    Time Temperature Precipitation Wind Pressure Humidity
    00:00 +26°C° 0 mm 1 mps 753 mmHg 85%
    01:00 +26°C° 0 mm 1 mps 753 mmHg 87%
    02:00 +25°C° 0 mm 1 mps 753 mmHg 88%
    03:00 +25°C° 0 mm 1 mps 753 mmHg 89%
    04:00 +25°C° 0 mm 1 mps 753 mmHg 90%
    05:00 +25°C° 0 mm 1 mps 753 mmHg 91%
    06:00 +24°C° 0 mm 0 mps 753 mmHg 84%
    07:00 +26°C° 0 mm 0 mps 754 mmHg 78%
    08:00 +27°C° 0 mm 0 mps 754 mmHg 72%
    09:00 +31°C° 0.1 mm 1 mps 754 mmHg 64%
    10:00 +33°C° 0.1 mm 1 mps 754 mmHg 56%
    11:00 +35°C° 0.1 mm 1 mps 754 mmHg 49%
    12:00 +34°C° 0.2 mm 1 mps 753 mmHg 50%
    13:00 +35°C° 0.2 mm 2 mps 753 mmHg 51%
    14:00 +34°C° 0.2 mm 2 mps 752 mmHg 53%
    15:00 +32°C° 0.6 mm 2 mps 752 mmHg 60%
    16:00 +30°C° 0.6 mm 2 mps 752 mmHg 67%
    17:00 +29°C° 0.6 mm 2 mps 752 mmHg 73%
    18:00 +28°C° 0.1 mm 1 mps 753 mmHg 78%
    19:00 +27°C° 0.1 mm 1 mps 753 mmHg 82%
    20:00 +26°C° 0.1 mm 1 mps 754 mmHg 86%
    21:00 +26°C° 0 mm 1 mps 754 mmHg 87%
    22:00 +26°C° 0 mm 1 mps 754 mmHg 88%
    23:00 +24°C° 0 mm 0 mps 754 mmHg 88%

    Day after tomorrow, 13 December, Thursday

    Time Temperature Precipitation Wind Pressure Humidity
    00:00 +23°C° 0 mm 0 mps 754 mmHg 89%
    01:00 +23°C° 0 mm 0 mps 753 mmHg 89%
    02:00 +23°C° 0 mm 0 mps 753 mmHg 90%
    03:00 +23°C° 0 mm 0 mps 753 mmHg 91%
    04:00 +23°C° 0 mm 0 mps 753 mmHg 91%
    05:00 +23°C° 0 mm 0 mps 753 mmHg 92%
    06:00 +24°C° 0 mm 0 mps 753 mmHg 87%
    07:00 +27°C° 0 mm 1 mps 754 mmHg 82%
    08:00 +28°C° 0 mm 1 mps 755 mmHg 77%
    09:00 +30°C° 0.2 mm 1 mps 754 mmHg 69%
    10:00 +32°C° 0.2 mm 1 mps 754 mmHg 62%
    11:00 +34°C° 0.2 mm 1 mps 754 mmHg 55%
    12:00 +34°C° 0.5 mm 1 mps 753 mmHg 55%
    13:00 +33°C° 0.5 mm 1 mps 753 mmHg 56%
    14:00 +33°C° 0.5 mm 1 mps 752 mmHg 57%
    15:00 +32°C° 0.6 mm 1 mps 752 mmHg 64%
    16:00 +30°C° 0.6 mm 1 mps 752 mmHg 72%
    17:00 +29°C° 0.6 mm 1 mps 752 mmHg 79%
    18:00 +28°C° 0.2 mm 1 mps 753 mmHg 82%
    19:00 +27°C° 0.2 mm 1 mps 754 mmHg 85%
    20:00 +26°C° 0.2 mm 1 mps 754 mmHg 88%
    21:00 +26°C° 0.8 mm 1 mps 754 mmHg 89%
    22:00 +26°C° 0.8 mm 1 mps 754 mmHg 91%
    23:00 +25°C° 0.8 mm 1 mps 754 mmHg 93%

    14 December, Friday

    Time Temperature Precipitation Wind Pressure Humidity
    00:00 +23°C° 0.2 mm 0 mps 754 mmHg 93%
    01:00 +23°C° 0.2 mm 0 mps 753 mmHg 93%
    02:00 +23°C° 0.2 mm 0 mps 753 mmHg 94%
    03:00 +23°C° 0 mm 0 mps 753 mmHg 94%
    04:00 +23°C° 0 mm 0 mps 753 mmHg 95%
    05:00 +23°C° 0 mm 0 mps 753 mmHg 95%
    06:00 +24°C° 0 mm 0 mps 754 mmHg 90%
    07:00 +25°C° 0 mm 0 mps 754 mmHg 86%
    08:00 +26°C° 0 mm 0 mps 755 mmHg 82%
    09:00 +28°C° 0.1 mm 0 mps 754 mmHg 72%
    10:00 +31°C° 0.1 mm 0 mps 754 mmHg 62%
    11:00 +33°C° 0.1 mm 0 mps 754 mmHg 52%
    12:00 +34°C° 1 mm 1 mps 753 mmHg 57%
    13:00 +33°C° 1 mm 1 mps 753 mmHg 62%
    14:00 +32°C° 1 mm 1 mps 752 mmHg 67%
    15:00 +31°C° 0.4 mm 1 mps 752 mmHg 69%
    16:00 +31°C° 0.4 mm 1 mps 752 mmHg 70%
    17:00 +30°C° 0.4 mm 1 mps 752 mmHg 72%
    18:00 +29°C° 0 mm 1 mps 753 mmHg 77%
    19:00 +28°C° 0 mm 1 mps 754 mmHg 81%
    20:00 +27°C° 0 mm 1 mps 754 mmHg 86%
    21:00 +27°C° 0 mm 1 mps 754 mmHg 87%
    22:00 +26°C° 0 mm 1 mps 754 mmHg 89%
    23:00 +24°C° 0 mm 0 mps 754 mmHg 90%

    15 December, Saturday

    Time Temperature Precipitation Wind Pressure Humidity
    00:00 +24°C° 0 mm 0 mps 754 mmHg 91%
    01:00 +24°C° 0 mm 0 mps 753 mmHg 92%
    02:00 +23°C° 0 mm 0 mps 753 mmHg 93%
    03:00 +23°C° 0 mm 0 mps 753 mmHg 94%
    04:00 +23°C° 0 mm 0 mps 754 mmHg 95%
    05:00 +23°C° 0 mm 0 mps 754 mmHg 95%
    06:00 +24°C° 0 mm 0 mps 754 mmHg 90%
    07:00 +26°C° 0 mm 0 mps 755 mmHg 84%
    08:00 +27°C° 0 mm 0 mps 755 mmHg 78%
    09:00 +29°C° 0 mm 0 mps 755 mmHg 69%
    10:00 +31°C° 0 mm 0 mps 755 mmHg 60%
    11:00 +34°C° 0 mm 0 mps 755 mmHg 51%
    12:00 +36°C° 0 mm 1 mps 754 mmHg 47%
    13:00 +36°C° 0 mm 1 mps 753 mmHg 43%
    14:00 +37°C° 0 mm 1 mps 752 mmHg 38%
    15:00 +35°C° 0 mm 1 mps 752 mmHg 44%
    16:00 +34°C° 0 mm 1 mps 752 mmHg 49%
    17:00 +32°C° 0 mm 1 mps 752 mmHg 54%
    18:00 +31°C° 0 mm 1 mps 753 mmHg 62%
    19:00 +29°C° 0 mm 1 mps 753 mmHg 70%
    20:00 +28°C° 0 mm 2 mps 754 mmHg 78%
    21:00 +27°C° 0 mm 1 mps 754 mmHg 82%
    22:00 +27°C° 0 mm 1 mps 754 mmHg 87%
    23:00 +27°C° 0 mm 1 mps 753 mmHg 91%

    16 December, Sunday

    Time Temperature Precipitation Wind Pressure Humidity
    00:00 +26°C° 0 mm 1 mps 753 mmHg 92%
    01:00 +26°C° 0 mm 1 mps 753 mmHg 94%
    02:00 +24°C° 0 mm 0 mps 753 mmHg 95%
    03:00 +24°C° 0 mm 0 mps 753 mmHg 95%
    04:00 +24°C° 0 mm 0 mps 753 mmHg 94%
    05:00 +26°C° 0 mm 1 mps 753 mmHg 94%
    06:00 +27°C° 0.1 mm 1 mps 754 mmHg 89%
    07:00 +28°C° 0.1 mm 1 mps 754 mmHg 84%
    08:00 +29°C° 0.1 mm 1 mps 755 mmHg 79%
    09:00 +31°C° 0 mm 1 mps 755 mmHg 67%
    10:00 +33°C° 0 mm 1 mps 754 mmHg 55%
    11:00 +36°C° 0 mm 1 mps 754 mmHg 43%
    12:00 +36°C° 0 mm 1 mps 753 mmHg 40%
    13:00 +37°C° 0 mm 1 mps 753 mmHg 36%
    14:00 +37°C° 0 mm 1 mps 752 mmHg 32%
    15:00 +36°C° 0 mm 1 mps 752 mmHg 38%
    16:00 +34°C° 0 mm 1 mps 752 mmHg 43%
    17:00 +32°C° 0 mm 2 mps 752 mmHg 49%
    18:00 +31°C° 0 mm 2 mps 753 mmHg 57%
    19:00 +29°C° 0 mm 1 mps 753 mmHg 65%
    20:00 +28°C° 0 mm 1 mps 753 mmHg 73%
    21:00 +27°C° 0 mm 1 mps 754 mmHg 79%
    22:00 +27°C° 0 mm 1 mps 754 mmHg 84%
    23:00 +26°C° 0 mm 1 mps 754 mmHg 89%
    Show more